Regional Weather Roundup
Issued by NWS

Home | Current Version | Previous Version | Text Only | Print | Product List | Glossary On
Versions: 1 2 3 4 5 6 7 8 9 10 11 12 13 14 15 16 17 18 19 20 21 22 23 24 25 26 27 28 29 30 31 32 33 34 35 36 37 38 39 40 41 42 43 44 45 46 47 48 49 50
000
ASUS44 KBMX 291210
RWRAL

ALABAMA REGIONAL WEATHER ROUNDUP
NATIONAL WEATHER SERVICE BIRMINGHAM AL
700 AM CDT FRI AUG 29 2014

NOTE: "FAIR" INDICATES FEW OR NO CLOUDS BELOW 12,000 FEET
WITH NO SIGNIFICANT WEATHER AND/OR OBSTRUCTIONS TO VISIBILITY.

THE REMARK "TC" DENOTES TEMPERATURE IN DEGREES CELSIUS.

ALZ001>011-014-016>018-020-291300-
NORTH ALABAMA

CITY           SKY/WX    TMP DP  RH WIND       PRES   REMARKS
MUSCLE SHOALS  CLEAR     67  64  90 CALM      30.03R
6HR MIN TEMP:  65; 6HR MAX TEMP:  71;

HUNTSVILLE     PTCLDY    70  66  87 SE3       30.05R
6HR MIN TEMP:  69; 6HR MAX TEMP:  74;

DECATUR        CLEAR     68  65  90 E5        30.05R
6HR MIN TEMP:  65; 6HR MAX TEMP:  70;

HALEYVILLE     FAIR      65  62  90 CALM      30.07R
6HR MIN TEMP:  65; 6HR MAX TEMP:  73;

GADSDEN        CLEAR     61  57  88 CALM      30.06R
6HR MIN TEMP:  61; 6HR MAX TEMP:  64;

$$

ALZ012-013-022-023-030>036-040>044-291300-
WEST CENTRAL ALABAMA

CITY           SKY/WX    TMP DP  RH WIND       PRES   REMARKS
TUSCALOOSA     CLEAR     66  64  93 CALM      30.02R
6HR MIN TEMP:  65; 6HR MAX TEMP:  72;

$$

ALZ015-024>027-033>036-040>044-291300-
CENTRAL ALABAMA

CITY           SKY/WX    TMP DP  RH WIND       PRES   REMARKS
BIRMINGHAM     MOCLDY    68  61  78 CALM      30.06R
6HR MIN TEMP:  67; 6HR MAX TEMP:  72;

MONTGOMERY     PTCLDY    71  67  87 CALM      30.03R
6HR MIN TEMP:  67; 6HR MAX TEMP:  73;

SHELBY CO ARPT PTCLDY    69  61  75 CALM      30.05R
6HR MIN TEMP:  67; 6HR MAX TEMP:  69;

MAXWELL AFB    PTCLDY    69  69 100 N2        30.03R
6HR MIN TEMP:  69; 6HR MAX TEMP:  72;

GREENVILLE     FAIR      70  66  87 CALM      30.03R
6HR MIN TEMP:  67; 6HR MAX TEMP:  71;

$$

ALZ019-021-028-029-037-038-045>048-291300-
EAST CENTRAL ALABAMA

CITY           SKY/WX    TMP DP  RH WIND       PRES   REMARKS
ANNISTON       CLEAR     65  62  90 CALM      30.07R
6HR MIN TEMP:  64; 6HR MAX TEMP:  67;

ALEXANDER CITY PTCLDY    70  64  81 CALM      30.06R
6HR MIN TEMP:  65; 6HR MAX TEMP:  71;

AUBURN         CLEAR     66  61  82 N5        30.09R
6HR MIN TEMP:  64; 6HR MAX TEMP:  70;

$$

ALZ051>064-291300-
SOUTHWEST ALABAMA

CITY           SKY/WX    TMP DP  RH WIND       PRES   REMARKS
MOBILE         MOCLDY    72  72 100 NE3       29.99R
6HR MIN TEMP:  71; 6HR MAX TEMP:  73;

BROOKLEY FIELD CLEAR     74  73  97 NW3       29.99R
6HR MIN TEMP:  74; 6HR MAX TEMP:  81;

EVERGREEN      PTCLDY    69  66  90 CALM      30.02R
6HR MIN TEMP:  68; 6HR MAX TEMP:  71;

$$

ALZ049-050-065>069-291300-
SOUTHEAST ALABAMA

CITY           SKY/WX    TMP DP  RH WIND       PRES   REMARKS
DOTHAN         CLEAR     70  66  87 NE3       30.07R
6HR MIN TEMP:  67; 6HR MAX TEMP:  73;

OZARK          CLEAR     69  67  90 NE6       30.03R
6HR MIN TEMP:  69; 6HR MAX TEMP:  73;

TROY           CLEAR     66  64  93 CALM      30.04R
6HR MIN TEMP:  64; 6HR MAX TEMP:  70;

EUFAULA        FAIR      68  65  90 CALM      30.04R
6HR MIN TEMP:  63; 6HR MAX TEMP:  68;

$$


USA.gov is the U.S. government's official web portal to all federal, state and local government web resources and services.